{"data":{"norad_id":48784,"epoch":"2026-05-25T00:58:01.072416Z","epoch_age_seconds":71151,"freshness":"FRESH","line1":"1 48784U 21045T   26145.04029019 -.00000051  00000+0 -17014-3 0  9999","line2":"2 48784  87.9004 263.7825 0001898 113.4396 246.6934 13.15550240241330","mean_motion":13.1555024,"eccentricity":0.0001898,"inclination_deg":87.9004,"raan_deg":263.7825,"arg_perigee_deg":113.4396,"mean_anomaly_deg":246.6934,"bstar":-0.00017014,"rev_number":24133,"period_min":109.45990173663,"perigee_km":1200.3256105953,"apogee_km":1203.2029411197,"semimajor_km":7579.9012758575,"source":"CELESTRAK","updated_at":"2026-05-25T13:38:22.445015Z"}}